Latest Coastal Weather Observations for Ballina

IDN60701

Issued at 2:21 am EST Tuesday 31 May 2016 (issued every 10 minutes, with the page automatically refreshed every 10 minutes)

About coastal observations | Map of coastal stations | Coastal observations for NSW | Marine services | Other Formats
Station Details ID: 058198 Name: BALLINA AIRPORT AWS Lat: -28.84 Lon: 153.56 Height: 1.3 m
Data from the previous 72 hours. | See also: Recent months at Ballina
Date/Time
EST
Temp

°C
Wind Pressure Rain
since 9am
mm
Weather Cloud Vis
km
Sea
Height
m
Swell
Dir
 
Speed
knots
Gust
knots
hPa Trend Height
m
Period
s
Dir
31/02:00am 8.2 CALM 0 0 1025.0 - 0.0 - Partly cloudy 10 - - - -
31/01:50am 7.8 CALM 0 0 1024.9 - 0.0 - Partly cloudy 10 - - - -
31/01:30am 7.6 CALM 0 0 1025.0 - 0.0 - Partly cloudy 0.8 - - - -
31/01:20am 7.5 CALM 0 0 1024.9 - 0.0 - Partly cloudy 5 - - - -
31/01:08am 8.5 CALM 0 0 1024.9 - 0.0 - Partly cloudy 10 - - - -
31/01:00am 8.3 CALM 0 0 1024.9 - 0.0 - Partly cloudy 10 - - - -
31/12:50am 8.4 CALM 0 0 1024.9 - 0.0 - - 5 - - - -
31/12:33am 8.1 CALM 0 0 1024.8 - 0.0 - - 10 - - - -
31/12:30am 8.3 CALM 0 0 1024.9 - 0.0 - - 10 - - - -
31/12:00am 8.6 CALM 0 0 1024.8 - 0.0 - - 0.5 - - - -
 
Date/Time
EST
Temp

°C
Wind Pressure Rain
since 9am
mm
Weather Cloud Vis
km
Sea
Height
m
Swell
Dir
 
Speed
knots
Gust
knots
hPa Trend Height
m
Period
s
Dir
30/11:47pm 8.3 CALM 0 0 1024.9 - 0.0 - - 5 - - - -
30/11:32pm 9.2 CALM 0 0 1024.9 - 0.0 - - 10 - - - -
30/11:30pm 9.1 CALM 0 0 1025.0 - 0.0 - - 10 - - - -
30/11:06pm 8.4 CALM 0 0 1024.8 - 0.0 - - 3 - - - -
30/11:00pm 8.6 CALM 0 0 1024.9 - 0.0 - - 10 - - - -
30/10:58pm 8.8 CALM 0 0 1025.0 - 0.0 - - 10 - - - -
30/10:34pm 9.1 CALM 0 0 1025.3 - 0.0 - - 4 - - - -
30/10:30pm 9.1 CALM 0 0 1025.3 - 0.0 - - 10 - - - -
30/10:07pm 9.5 CALM 0 0 1025.3 - 0.0 - - 10 - - - -
30/10:00pm 9.4 CALM 0 0 1025.3 - 0.0 - - 10 - - - -
30/09:41pm 9.8 CALM 0 0 1025.2 - 0.0 - - 5 - - - -
30/09:30pm 9.2 CALM 0 0 1025.2 - 0.0 - - 10 - - - -
30/09:00pm 10.2 CALM 0 0 1025.0 - 0.0 - Mostly clear 10 - - - -
30/08:57pm 10.2 CALM 0 0 1025.0 - 0.0 - Partly cloudy 10 - - - -
30/08:37pm 10.1 CALM 0 0 1025.0 - 0.0 - - 3 - - - -
30/08:30pm 10.2 CALM 0 0 1024.9 - 0.0 - - 10 - - - -
30/08:00pm 10.9 CALM 0 0 1024.7 - 0.0 - - 10 - - - -
30/07:30pm 12.2 CALM 0 0 1024.2 - 0.0 - - 10 - - - -
30/07:00pm 12.4 CALM 0 0 1024.2 - 0.0 - - 10 - - - -
30/06:30pm 13.2 CALM 0 0 1024.0 - 0.0 - - 10 - - - -
30/06:00pm 14.5 CALM 0 0 1023.7 - 0.0 - Partly cloudy 10 - - - -
30/05:30pm 14.5 CALM 0 0 1023.5 - 0.0 - Partly cloudy 10 - - - -
30/05:00pm 16.4 CALM 0 0 1023.1 - 0.0 - - 10 - - - -
30/04:30pm 18.4 SE 5 7 1022.8 - 0.0 - Partly cloudy 10 - - - -
30/04:00pm 19.6 SSE 5 7 1022.7 - 0.0 - Partly cloudy 10 - - - -
30/03:30pm 19.8 SE 6 9 1022.5 - 0.0 - Partly cloudy 10 - - - -
30/03:00pm 20.3 SE 7 10 1022.1 - 0.0 - - 10 - - - -
30/02:30pm 20.3 SSE 8 10 1022.1 - 0.0 - - 10 - - - -
30/02:00pm 19.9 SE 8 13 1022.0 - 0.0 - - 10 - - - -
30/01:30pm 19.9 SE 7 10 1022.2 - 0.0 - Partly cloudy 10 - - - -
30/01:00pm 21.0 SE 6 9 1022.2 - 0.0 - - 10 - - - -
30/12:30pm 20.5 SE 6 10 1022.5 - 0.0 - - 10 - - - -
30/12:00pm 20.4 SSW 5 7 1023.0 - 0.0 - - 10 - - - -
30/11:30am 19.7 SW 5 7 1023.4 - 0.0 - - 10 - - - -
30/11:00am 19.2 WSW 6 7 1023.8 - 0.0 - - 10 - - - -
30/10:30am 18.5 W 7 9 1024.2 - 0.0 - - 10 - - - -
30/10:00am 17.4 WSW 7 9 1024.3 - 0.0 - - 10 - - - -
30/09:30am 16.0 W 7 9 1024.3 - 0.0 - - 10 - - - -
30/09:00am 14.7 W 6 7 1024.2 - 0.0 - - 10 - - - -
30/08:30am 13.2 W 6 8 1024.1 - 0.0 - - 10 - - - -
30/08:00am 11.0 NW 3 4 1023.8 - 0.0 - - 10 - - - -
30/07:30am 8.2 CALM 0 0 1023.6 - 0.0 - - 10 - - - -
30/07:00am 6.0 NW 1 3 1023.3 - 0.0 - - 10 - - - -
30/06:30am 5.3 CALM 0 0 1022.9 - 0.0 - - 10 - - - -
30/06:00am 5.4 CALM 0 0 1022.5 - 0.0 - - 10 - - - -
30/05:37am 5.8 CALM 0 0 1022.2 - 0.0 - - 10 - - - -
30/05:30am 5.7 CALM 0 0 1022.1 - 0.0 - - 10 - - - -
30/05:00am 5.3 CALM 0 0 1021.6 - 0.0 - - 1 - - - -
30/04:44am 5.7 CALM 0 0 1021.4 - 0.0 - - 5 - - - -
30/04:43am 5.7 CALM 0 0 1021.4 - 0.0 - - 7 - - - -
30/04:30am 5.7 CALM 0 0 1021.2 - 0.0 - - 3 - - - -
30/04:03am 5.3 CALM 0 0 1021.0 - 0.0 - - 5 - - - -
30/04:00am 5.3 CALM 0 0 1021.0 - 0.0 - - 6 - - - -
30/03:30am 6.0 CALM 0 0 1021.0 - 0.0 - - 10 - - - -
30/03:02am 5.7 CALM 0 0 1020.7 - 0.0 - - 10 - - - -
30/03:00am 5.8 CALM 0 0 1020.7 - 0.0 - - 10 - - - -
30/02:42am 5.8 CALM 0 0 1020.7 - 0.0 - - 5 - - - -
30/02:30am 6.1 CALM 0 0 1020.7 - 0.0 - - 10 - - - -
30/02:00am 5.8 CALM 0 0 1020.7 - 0.0 - - 10 - - - -
30/01:30am 6.2 CALM 0 0 1020.6 - 0.0 - - 10 - - - -
30/01:00am 6.0 CALM 0 0 1020.6 - 0.0 - - 10 - - - -
30/12:30am 6.8 CALM 0 0 1020.5 - 0.0 - - 10 - - - -
30/12:00am 6.4 CALM 0 0 1020.4 - 0.0 - - 10 - - - -
 
Date/Time
EST
Temp

°C
Wind Pressure Rain
since 9am
mm
Weather Cloud Vis
km
Sea
Height
m
Swell
Dir
 
Speed
knots
Gust
knots
hPa Trend Height
m
Period
s
Dir
29/11:30pm 6.8 CALM 0 0 1020.4 - 0.0 - - 10 - - - -
29/11:00pm 7.2 CALM 0 0 1020.7 - 0.0 - - 10 - - - -
29/10:30pm 7.3 CALM 0 0 1020.7 - 0.0 - - 10 - - - -
29/10:00pm 7.3 CALM 0 0 1020.6 - 0.0 - - 10 - - - -
29/09:30pm 7.8 CALM 0 0 1020.3 - 0.0 - - 10 - - - -
29/09:00pm 8.0 CALM 0 0 1020.2 - 0.0 - - 10 - - - -
29/08:30pm 7.8 CALM 0 0 1020.0 - 0.0 - - 10 - - - -
29/08:00pm 8.6 CALM 0 0 1019.7 - 0.0 - - 10 - - - -
29/07:30pm 9.1 CALM 0 0 1019.4 - 0.0 - - 10 - - - -
29/07:00pm 9.3 CALM 0 0 1019.0 - 0.0 - - 10 - - - -
29/06:30pm 10.2 CALM 0 0 1018.8 - 0.0 - - 10 - - - -
29/06:00pm 10.9 NNE 1 4 1018.4 - 0.0 - - 10 - - - -
29/05:30pm 12.5 CALM 0 3 1017.9 - 0.0 - - 10 - - - -
29/05:00pm 14.1 N 3 4 1017.8 - 0.0 - - 10 - - - -
29/04:30pm 17.2 E 3 5 1017.6 - 0.0 - - 10 - - - -
29/04:00pm 18.0 ESE 5 7 1017.2 - 0.0 - - 10 - - - -
29/03:30pm 18.7 E 6 8 1016.8 - 0.0 - - 10 - - - -
29/03:00pm 19.0 ESE 7 9 1016.6 - 0.0 - - 10 - - - -
29/02:30pm 19.6 ESE 5 7 1016.4 - 0.0 - - 10 - - - -
29/02:00pm 20.4 NNW 5 6 1016.3 - 0.0 - - 10 - - - -
29/01:30pm 19.8 WSW 5 8 1016.5 - 0.0 - - 10 - - - -
29/01:00pm 19.7 SSW 7 10 1016.6 - 0.0 - - 10 - - - -
29/12:30pm 19.3 SW 5 9 1016.8 - 0.0 - - 10 - - - -
29/12:00pm 18.8 SW 6 10 1017.0 - 0.0 - - 10 - - - -
29/11:30am 18.4 WSW 9 12 1017.2 - 0.0 - - 10 - - - -
29/11:00am 18.5 W 9 12 1017.4 - 0.0 - - 10 - - - -
29/10:30am 18.1 WSW 10 14 1017.7 - 0.0 - - 10 - - - -
29/10:00am 17.0 WSW 11 15 1018.0 - 0.0 - - 10 - - - -
29/09:30am 16.4 W 12 16 1018.1 - 0.0 - - 10 - - - -
29/09:00am 15.8 W 12 15 1018.3 - 0.0 - - 10 - - - -
29/08:30am 14.9 W 9 11 1018.0 - 0.0 - - 10 - - - -
29/08:00am 13.8 W 11 15 1017.6 - 0.0 - - 10 - - - -
29/07:30am 12.2 W 9 14 1017.3 - 0.0 - - 10 - - - -
29/07:00am 10.2 W 8 11 1017.0 - 0.0 - - 10 - - - -
29/06:30am 9.8 W 9 11 1016.8 - 0.0 - - 10 - - - -
29/06:00am 9.1 W 8 9 1016.6 - 0.0 - - 10 - - - -
29/05:30am 9.2 W 8 10 1016.3 - 0.0 - - 10 - - - -
29/05:00am 9.4 W 6 9 1015.9 - 0.0 - - 10 - - - -
29/04:30am 10.0 WSW 7 9 1015.5 - 0.0 - - 10 - - - -
29/04:00am 10.8 WSW 8 10 1015.2 - 0.0 - - 10 - - - -
29/03:30am 11.7 W 9 12 1015.0 - 0.0 - - 10 - - - -
29/03:00am 11.3 W 9 12 1015.0 - 0.0 - - 10 - - - -
29/02:30am 12.4 W 10 13 1014.7 - 0.0 - - 10 - - - -
29/02:00am 11.9 W 9 12 1014.8 - 0.0 - - 10 - - - -
29/01:30am 13.0 WNW 10 14 1014.8 - 0.0 - - 10 - - - -
29/01:00am 10.1 NNW 2 5 1014.9 - 0.0 - - 10 - - - -
29/12:30am 11.4 NW 3 6 1014.6 - 0.0 - - 10 - - - -
29/12:00am 13.2 WNW 8 11 1014.4 - 0.0 - - 10 - - - -
 
Date/Time
EST
Temp

°C
Wind Pressure Rain
since 9am
mm
Weather Cloud Vis
km
Sea
Height
m
Swell
Dir
 
Speed
knots
Gust
knots
hPa Trend Height
m
Period
s
Dir
28/11:30pm 13.7 WNW 10 13 1014.3 - 0.0 - - 10 - - - -
28/11:00pm 13.4 WNW 7 12 1014.1 - 0.0 - - 10 - - - -
28/10:30pm 13.5 WSW 6 8 1014.2 - 0.0 - - 10 - - - -
28/10:00pm 13.6 W 8 12 1014.1 - 0.0 - - 10 - - - -
28/09:30pm 14.3 WNW 9 12 1013.8 - 0.0 - - 10 - - - -
28/09:00pm 14.4 WNW 8 12 1013.3 - 0.0 - - 10 - - - -
28/08:30pm 15.4 WNW 6 9 1013.2 - 0.0 - - 10 - - - -
28/08:00pm 16.1 WNW 9 17 1012.7 - 0.0 - - 10 - - - -
28/07:30pm 16.2 WNW 11 15 1012.3 - 0.0 - - 10 - - - -
28/07:00pm 14.9 WNW 8 10 1012.2 - 0.0 - - 10 - - - -
28/06:30pm 15.9 WNW 7 8 1011.7 - 0.0 - - 10 - - - -
28/06:00pm 16.6 WNW 6 9 1011.3 - 0.0 - - 10 - - - -
28/05:30pm 17.2 W 8 12 1010.6 - 0.0 - - 10 - - - -
28/05:00pm 18.7 WNW 12 16 1009.9 - 0.0 - - 10 - - - -
28/04:30pm 19.6 WNW 13 20 1009.5 - 0.0 - - 10 - - - -
28/04:04pm 20.6 W 15 26 1009.2 - 0.0 - - 10 - - - -
28/04:00pm 20.7 W 17 24 1009.2 - 0.0 - - 10 - - - -
28/03:30pm 21.3 W 21 28 1008.8 - 0.0 - - 10 - - - -
28/03:01pm 21.6 WNW 15 26 1008.5 - 0.0 - - 10 - - - -
28/03:00pm 21.6 WNW 15 23 1008.5 - 0.0 - - 10 - - - -
28/02:54pm 21.2 WNW 19 29 1008.5 - 0.0 - - 10 - - - -
28/02:30pm 22.2 WNW 14 23 1008.2 - 0.0 - - 10 - - - -
28/02:24pm 22.1 WNW 15 25 1008.2 - 0.0 - - 10 - - - -
28/02:00pm 22.0 WNW 17 23 1008.4 - 0.0 - Partly cloudy 10 - - - -
28/01:42pm 22.0 NW 12 23 1008.5 - 0.0 - Partly cloudy 10 - - - -
28/01:30pm 21.1 NNW 9 13 1008.8 - 0.0 - Partly cloudy 10 - - - -
28/01:00pm 21.1 WNW 11 16 1008.9 - 0.0 - Partly cloudy 10 - - - -
28/12:30pm 20.0 WNW 8 15 1009.3 - 0.0 - Partly cloudy 10 - - - -
28/12:00pm 20.2 W 11 18 1009.9 - 0.0 - - 10 - - - -
28/11:30am 19.8 WNW 11 16 1010.5 - 0.0 - - 10 - - - -
28/11:00am 19.5 WNW 12 16 1010.9 - 0.0 - - 10 - - - -
28/10:30am 19.0 WNW 11 16 1011.5 - 0.0 - - 10 - - - -
28/10:00am 18.1 NW 13 18 1011.5 - 0.0 - - 10 - - - -
28/09:30am 17.5 WNW 11 16 1012.0 - 0.0 - - 10 - - - -
28/09:00am 16.2 NW 8 11 1012.2 - 0.0 - - 10 - - - -
28/08:30am 15.4 NNW 8 12 1012.3 - 0.0 - - 10 - - - -
28/08:00am 14.3 NW 10 15 1012.0 - 0.0 - - 10 - - - -
28/07:30am 13.1 WNW 7 9 1011.8 - 0.0 - - 10 - - - -
28/07:00am 9.9 WNW 6 8 1011.7 - 0.0 - - 10 - - - -
28/06:30am 10.4 NW 8 9 1011.5 - 0.0 - - 10 - - - -
28/06:00am 11.2 NW 7 10 1011.2 - 0.0 - - 10 - - - -
28/05:30am 10.3 WNW 3 6 1011.0 - 0.0 - - 10 - - - -
28/05:00am 12.0 WNW 3 5 1010.9 - 0.0 - - 10 - - - -
28/04:30am 12.3 W 4 6 1010.7 - 0.0 - - 10 - - - -
28/04:00am 12.5 WNW 6 9 1010.6 - 0.0 - - 10 - - - -
28/03:30am 12.2 W 8 10 1010.5 - 0.0 - - 10 - - - -
28/03:00am 12.7 W 10 13 1010.5 - 0.0 - Mostly cloudy 10 - - - -
28/02:30am 11.7 W 9 14 1010.3 - 0.0 - - 10 - - - -

Other Formats:

Comma delimited format used in spreadsheet applications
http://www.bom.gov.au/fwo/IDN60701/IDN60701.94596.axf

JavaScript Object Notation format (JSON) in row-major order
http://www.bom.gov.au/fwo/IDN60701/IDN60701.94596.json